Location: Budapest
(47.4979°N, 19.0402°E)
Time: 10:52:34
(UTC+02:00)

Envisat - Pass Details

Date: 11 October 2017
Orbit: 764 x 766 km, 98.2° (Epoch: 19 October)

Event Time Altitude Azimuth Distance (km) Brightness Sun altitude
Exits shadow 19:49:51 34° 116° (ESE) 1,243 3.6 -18.7°
Maximum altitude 19:51:31 46° 69° (ENE) 1,019 3.2 -19.0°
Drops below altitude 10° 19:56:22 10° 357° (N) 2,313 5.6 -19.8°
Sets 19:58:45 0° 352° (N) 3,244 6.5 -20.2°
